Simultaneous Nadir Overpasses (SNOs) Predictions

Prediction of SNOs between GOES-15 and METOP-A Satellite Orbit:

Table of predicted SNOs for the next 14.0 days since TLE Epoch: 7/10/2021
Index Date Time (GOES-15) GOES-15 Lat,Lon METOP-A Lat,Lon Distance(km) Time Diff (sec)
1 07/12/2021 16:35:33 -0.17,-127.89 -0.11,-128.08 22.77 80
2 07/15/2021 04:33:53 0.17,-127.78 0.19,-127.74 4.79 80
3 07/17/2021 16:34:44 -0.17,-127.69 -0.26,-127.36 37.37 80
4 07/19/2021 04:53:43 0.16,-127.62 -0.79,-132.00 497.88 80
5 07/20/2021 04:30:23 0.17,-127.57 0.29,-127.01 63.61 80
6 07/21/2021 16:49:14 -0.16,-127.50 0.72,-131.62 468.36 80
7 07/22/2021 16:31:14 -0.17,-127.45 -0.36,-126.63 93.38 80
